Location: Chochol
(49.7771°N, 14.9780°E)
Time: 13:39:23
(UTC+00:00)

SeaSat 1 - Visible Passes

Search period start: 06 August 2020 00:00
Search period end: 16 August 2020 00:00
Orbit: 744 x 747 km, 108.0° (Epoch: 05 August)

Date Brightness Start Highest point End Pass type
(mag) Time Alt. Az. Time Alt. Az. Time Alt. Az.
06 Aug 3.5 02:20:18 10° NE 02:24:59 42° ESE 02:29:39 10° S visible
07 Aug 4.7 01:39:04 10° ENE 01:42:26 18° ESE 01:45:46 10° SSE visible
08 Aug 3.4 02:33:27 10° NE 02:38:12 45° ESE 02:42:56 10° S visible
09 Aug 4.6 01:52:06 10° ENE 01:55:40 20° ESE 01:59:13 10° SSE visible
10 Aug 3.3 02:46:37 10° NE 02:51:26 49° ESE 02:56:11 10° S visible
11 Aug 4.6 02:05:10 10° ENE 02:08:55 21° ESE 02:12:38 10° SSE visible
12 Aug 3.2 02:59:47 10° NE 03:04:38 53° ESE 03:09:27 10° SSW visible
13 Aug 4.5 02:18:14 10° NE 02:22:09 23° ESE 02:26:02 10° SSE visible
15 Aug 4.4 02:31:20 10° NE 02:35:23 25° ESE 02:39:24 10° SSE visible
